Weather History for PAMR - February, 2014

Change the Weather History Date:

Thursday, February 27, 2014

  Actual Average Record
Temperature  
Mean Temperature 38 °F -  
Max Temperature 48 °F 30 °F 48 °F (2014)
Min Temperature 28 °F 16 °F 14 °F (2015)
Degree Days  
Heating Degree Days 27    
Moisture  
Dew Point 23 °F    
Average Humidity 54    
Maximum Humidity 76    
Minimum Humidity 42    
Precipitation  
Precipitation 0.00 in - - ()
Sea Level Pressure  
Sea Level Pressure 29.78 in    
Wind  
Wind Speed 2 mph (SE)    
Max Wind Speed 9 mph    
Max Gust Speed 17 mph    
Visibility 10 miles    
Events      
Averages and records for this station are not official NWS values.
T = Trace of Precipitation, MM = Missing Value Source: NWS Daily Summary

Daily Weather History Graph

Daily Weather History Graph

Search for Another Location

Airport or City:

Trip Planner

Search our weather history database for the weather conditions in past years. The results will help you decide how hot, cold, wet, or windy it might be!

Date:

Astronomy

Feb. 27, 2014 Rise Set
Actual Time 8:05 AM AKST 6:19 PM AKST
Civil Twilight 7:21 AM AKST 7:03 PM AKST
Nautical Twilight 6:32 AM AKST 7:53 PM AKST
Astronomical Twilight 5:41 AM AKST 8:44 PM AKST
Moon 7:04 AM AKST (2/27) 4:44 PM AKST (2/27)
Length of Visible Light 11h 41m
Length of Day
10h 14m
Waning Crescent, 3% of the Moon is Illuminated
Feb 27
Waning Crescent
Feb 28
New
Mar 8
First Quarter
Mar 16
Full
Mar 23
Last Quarter

Hourly Weather History & Observations

Time (AKST) Temp. Windchill Dew Point Humidity Pressure Visibility Wind Dir Wind Speed Gust Speed Precip Events Conditions
12:53 AM 34.0 °F - 17.1 °F 50% 29.75 in 10.0 mi Calm Calm - N/A   Overcast
1:53 AM 33.1 °F - 19.0 °F 56% 29.76 in 10.0 mi Calm Calm - N/A   Overcast
3:53 AM 35.1 °F - 17.1 °F 48% 29.74 in 10.0 mi Calm Calm - N/A   Overcast
4:53 AM 34.0 °F - 17.1 °F 50% 29.72 in 10.0 mi Calm Calm - N/A   Overcast
5:53 AM 33.1 °F 30.0 °F 21.0 °F 61% 29.73 in 10.0 mi NE 3.5 mph - N/A   Overcast
6:53 AM 33.1 °F 28.7 °F 19.0 °F 56% 29.72 in 10.0 mi NNE 4.6 mph - N/A   Mostly Cloudy
7:53 AM 28.9 °F 25.2 °F 19.0 °F 67% 29.73 in 10.0 mi ENE 3.5 mph - N/A   Scattered Clouds
8:53 AM 32.0 °F - 19.9 °F 61% 29.72 in 9.0 mi Calm Calm - N/A   Scattered Clouds
9:53 AM 36.0 °F - 19.0 °F 50% 29.72 in 10.0 mi Calm Calm - N/A   Mostly Cloudy
10:53 AM 37.0 °F - 19.9 °F 50% 29.73 in 10.0 mi Calm Calm - N/A   Clear
11:53 AM 39.9 °F 36.7 °F 19.9 °F 45% 29.73 in 10.0 mi North 4.6 mph - N/A   Scattered Clouds
12:53 PM 39.9 °F - 19.9 °F 45% 29.74 in 10.0 mi Calm Calm - N/A   Partly Cloudy
12:54 PM 39.2 °F - 19.4 °F 45% 29.73 in 10.0 mi Calm Calm - N/A   Scattered Clouds
1:53 PM 41.0 °F - 23.0 °F 49% 29.74 in 10.0 mi Calm Calm - N/A   Scattered Clouds
2:53 PM 45.0 °F - 23.0 °F 42% 29.75 in 10.0 mi Calm Calm - N/A   Clear
3:53 PM 42.1 °F - 25.0 °F 51% 29.76 in 10.0 mi Calm Calm - N/A   Scattered Clouds
4:53 PM 44.1 °F - 26.1 °F 49% 29.79 in 10.0 mi Calm Calm - N/A   Mostly Cloudy
5:53 PM 42.1 °F 37.7 °F 26.1 °F 53% 29.81 in 10.0 mi East 6.9 mph - N/A   Mostly Cloudy
6:53 PM 45.0 °F 42.6 °F 30.0 °F 56% 29.83 in 10.0 mi SSE 4.6 mph - N/A   Overcast
7:53 PM 48.0 °F - 32.0 °F 54% 29.84 in 10.0 mi South 9.2 mph - N/A   Overcast
8:53 PM 48.9 °F - 30.9 °F 50% 29.87 in 10.0 mi South 5.8 mph - N/A   Mostly Cloudy
9:53 PM 44.1 °F 39.5 °F 32.0 °F 63% 29.91 in 10.0 mi SSW 8.1 mph - N/A   Mostly Cloudy
10:53 PM 44.1 °F 39.5 °F 33.1 °F 65% 29.93 in 10.0 mi South 8.1 mph 17.3 mph 0.00 in   Overcast
11:53 PM 39.0 °F 34.8 °F 32.0 °F 76% 29.97 in 10.0 mi South 5.8 mph - N/A   Overcast